Theta_e
320 320 321 321 322 323 324 324 325 325 325 325 326 326 325 325 324 319 310 314 318 328 320 314 314 313 314 312 312 310 302 298 298 299 302 306 304 307 308 306 307 307 307 306 309
320 319 320 320 320 322 323 324 324 324 325 325 326 326 325 324 318 310 319 328 330 329 313 310 308 309 309 309 310 306 301 300 302 303 303 305 305 306 305 305 304 305 307 308 309
320 319 319 319 319 320 322 322 323 324 324 325 325 326 324 322 312 309 325 328 330 321 313 312 312 309 305 307 307 305 300 301 301 304 305 304 304 306 304 303 305 304 305 306 307
320 319 319 319 319 320 321 322 322 323 324 324 325 325 322 317 300 313 326 327 329 316 313 311 309 305 303 302 306 301 303 303 304 304 304 303 306 304 305 304 304 304 304 305 305
321 320 319 319 319 319 320 321 322 323 323 324 325 324 318 310 309 320 326 326 315 313 310 309 305 305 301 302 303 302 303 304 305 305 304 304 303 303 303 303 303 303 303 303 303
321 320 320 319 319 320 320 321 321 323 323 323 325 322 314 303 318 321 317 314 313 312 309 309 306 306 303 302 302 303 302 303 304 304 304 301 303 302 302 303 301 301 301 301 301
321 321 320 320 320 320 320 320 321 322 322 323 324 317 311 308 319 320 314 312 312 311 308 309 309 305 305 302 304 303 299 303 304 304 302 303 299 299 302 302 300 300 300 300 300
321 320 320 320 320 320 320 320 321 321 323 323 321 315 308 312 320 316 315 312 312 312 310 311 310 307 305 304 302 300 301 298 303 301 301 301 298 301 301 300 300 300 300 299 299
320 320 320 320 320 320 320 320 320 322 321 320 316 312 306 314 310 316 316 311 310 310 310 309 309 305 303 300 299 300 295 298 300 302 300 299 300 300 300 300 301 301 300 299 299
320 320 320 320 320 320 320 320 322 321 317 317 314 306 309 305 308 313 312 312 307 307 305 305 304 301 300 299 293 296 297 298 297 300 299 298 298 299 299 299 300 301 300 298 298
321 320 320 321 321 321 320 319 311 308 311 308 307 307 306 306 309 308 309 307 308 306 300 303 299 296 299 301 301 300 298 297 300 301 298 299 299 302 299 298 300 299 299 298 296
321 321 321 321 321 321 319 314 312 310 303 310 309 308 309 307 301 305 309 304 303 299 302 297 295 301 303 302 300 299 296 296 300 301 296 298 298 302 300 298 299 299 298 297 295
321 320 320 321 320 318 319 316 316 314 307 309 310 307 308 305 303 303 305 305 301 299 298 297 300 301 300 297 296 296 295 295 296 298 297 296 294 298 301 298 297 298 298 297 295
321 320 320 320 314 316 314 319 317 315 299 303 303 306 306 307 302 309 307 304 299 297 299 298 302 297 296 295 296 293 299 297 296 294 290 297 288 298 300 293 293 294 294 294 293
320 320 321 320 316 314 317 319 315 313 287 303 302 307 305 303 301 300 305 302 298 297 297 296 295 294 294 296 297 295 297 296 295 293 293 294 290 294 297 291 292 293 293 292 291
319 319 319 317 315 316 319 317 314 294 285 298 301 298 298 300 298 299 299 302 301 298 299 297 298 297 297 296 297 297 295 293 293 293 286 292 292 293 295 294 296 293 293 292 290
318 318 317 319 311 316 319 312 293 285 300 296 296 297 299 297 296 297 295 294 294 290 291 295 296 298 297 293 294 295 292 287 286 285 284 292 292 294 298 296 298 293 292 291 290
316 317 317 319 317 317 314 301 286 295 297 298 297 296 295 297 297 295 295 294 297 296 293 292 290 296 297 296 294 292 293 288 283 285 288 288 286 293 294 297 297 296 293 291 289
316 316 316 318 316 317 306 291 290 296 301 298 295 293 294 296 297 295 295 296 299 297 291 293 293 296 297 298 298 294 290 296 288 284 285 290 292 296 292 292 294 293 292 290 288
313 311 310 317 317 312 300 293 294 302 302 300 294 297 294 294 292 294 295 299 297 300 300 296 290 295 295 295 296 296 298 287 288 282 282 289 291 293 289 290 292 291 291 290 289
310 302 313 319 315 304 293 293 299 304 304 296 296 295 296 295 294 294 296 300 300 299 299 297 293 291 291 291 292 289 289 292 293 290 285 285 290 295 296 293 291 291 291 290 288
306 296 315 315 299 299 294 297 300 301 305 301 301 299 297 296 292 294 294 298 301 298 293 297 293 287 291 296 296 296 292 292 286 285 289 288 290 292 293 296 294 292 292 291 289
298 300 313 312 292 292 298 298 300 299 299 299 298 300 300 297 290 292 295 302 301 296 295 297 288 285 287 290 291 287 292 294 294 290 286 284 289 291 292 293 294 292 292 291 288
296 292 299 303 303 296 294 294 295 303 300 300 298 300 297 295 297 294 295 299 299 301 299 298 289 287 287 292 293 287 289 291 291 286 287 288 291 290 291 291 292 292 292 290 289
295 289 293 290 294 296 297 295 293 294 298 300 296 298 296 292 293 293 296 296 293 295 294 295 285 287 290 293 289 290 289 289 287 290 286 290 291 295 294 292 292 293 292 290 288
292 289 291 287 289 289 294 293 292 294 295 293 294 296 297 293 294 292 295 294 292 292 291 293 286 288 286 290 289 286 289 291 290 290 290 292 291 299 297 293 291 291 291 289 288
299 295 292 289 286 286 288 289 292 293 296 297 296 296 294 297 300 301 300 296 294 290 289 287 286 284 282 286 284 281 286 289 290 292 291 287 292 289 288 290 292 291 290 289 289
Wind_Speed
6 6 6 6 6 6 7 8 10 10 11 12 12 12 11 11 13 5 2 4 3 2 3 1 2 0 2 2 2 2 4 5 3 5 5 6 7 4 1 4 2 3 5 5 6
6 6 7 8 8 8 8 8 8 9 10 12 13 13 12 11 5 3 3 2 1 2 4 4 3 3 3 1 1 4 4 2 3 0 3 6 4 4 6 7 6 5 6 6 4
6 6 7 7 8 9 9 9 10 10 11 12 13 14 14 9 5 3 2 1 3 4 2 1 2 2 3 2 1 1 4 2 3 0 2 3 5 3 7 7 5 3 4 5 5
6 6 7 7 8 8 9 10 10 11 12 12 13 15 15 5 4 3 3 3 2 3 4 4 3 3 4 5 2 6 2 2 1 2 3 6 1 6 7 5 4 4 3 3 4
6 6 6 7 8 9 9 10 11 11 11 13 14 15 7 6 2 4 4 3 3 3 4 3 5 3 7 2 3 7 2 2 4 4 6 1 9 9 7 4 3 3 3 3 3
6 7 7 7 7 8 9 9 11 10 12 14 14 16 6 9 4 5 4 4 3 5 4 4 3 2 3 3 5 4 4 6 6 10 7 8 9 4 5 6 5 4 3 3 4
7 7 7 7 7 8 9 10 10 10 11 13 12 6 6 10 2 5 4 1 1 2 3 1 1 5 1 3 1 3 8 9 12 12 8 7 9 12 10 9 7 5 4 2 3
8 8 7 8 8 8 9 9 9 10 12 9 6 7 8 2 1 5 5 3 3 2 1 2 2 1 4 2 4 5 5 9 7 7 4 9 14 9 9 10 9 6 4 2 2
9 8 8 8 8 8 9 10 9 8 5 5 5 4 7 2 4 6 6 4 5 4 4 3 3 3 4 6 8 9 10 10 7 10 6 12 5 9 8 12 10 8 6 4 3
9 9 9 9 8 8 9 8 5 5 5 4 2 4 7 2 4 5 3 9 4 8 5 6 6 8 9 10 10 11 13 10 11 7 10 11 15 9 9 12 12 10 8 6 4
9 9 10 10 8 7 8 4 4 5 5 8 1 5 0 3 2 4 4 8 6 8 9 10 10 15 18 18 18 14 13 14 11 2 6 14 16 12 13 11 13 11 10 8 5
10 10 11 11 8 5 5 5 2 2 10 14 15 11 6 4 4 8 9 11 10 13 13 5 16 17 14 13 16 15 16 17 14 5 5 15 19 17 14 15 14 13 12 10 8
8 10 12 12 8 3 7 4 2 2 7 9 14 9 7 11 10 14 16 9 10 15 16 19 8 3 14 9 12 15 18 16 16 3 12 15 21 22 13 12 8 10 10 10 11
10 10 11 8 5 5 4 2 4 2 6 8 7 3 6 7 9 7 16 5 8 13 13 17 18 7 10 15 13 17 16 16 15 9 11 4 14 11 11 15 15 14 13 13 13
14 13 11 18 7 6 5 7 3 1 6 6 5 3 4 11 3 3 2 6 16 9 7 5 6 12 16 14 13 9 2 7 11 14 16 18 14 6 0 13 20 18 17 15 14
15 15 11 12 2 1 9 10 3 4 11 6 5 6 7 9 2 3 5 4 2 16 14 16 3 5 7 2 10 9 6 3 3 8 14 16 17 12 14 16 14 19 19 18 17
16 15 11 5 4 9 12 5 4 6 2 8 7 9 11 9 8 7 8 11 11 8 17 20 21 8 5 6 4 12 8 4 6 7 10 1 13 18 5 4 9 22 22 21 18
16 15 9 5 7 11 2 5 10 10 18 6 1 6 9 12 7 9 7 11 19 15 10 8 8 22 16 24 12 17 16 8 7 9 7 2 11 6 4 3 5 18 21 21 20
13 8 7 8 12 9 7 10 8 14 9 9 6 7 8 7 5 9 12 11 8 21 12 8 9 3 5 15 18 10 16 11 5 2 5 9 14 8 7 7 11 19 22 22 22
5 5 12 14 15 9 10 21 11 15 4 12 14 14 11 13 11 11 10 5 14 14 18 4 10 5 4 3 10 12 6 6 3 6 8 10 13 12 11 15 17 22 24 22 20
5 5 7 17 8 8 12 10 21 20 14 10 15 15 16 8 14 10 9 9 10 5 17 10 6 3 3 13 16 8 9 9 7 9 5 9 11 6 4 19 21 21 21 22 22
3 7 11 13 13 5 12 7 7 15 21 14 13 18 22 13 10 14 17 17 12 8 10 13 3 7 19 4 10 15 17 20 8 9 10 6 12 2 2 10 17 18 19 20 19
4 5 7 11 13 16 18 18 22 9 10 11 14 14 13 18 7 13 16 9 10 12 10 12 5 4 4 3 2 9 18 19 23 2 13 6 8 1 3 6 14 18 20 20 20
2 3 6 8 11 20 24 26 17 17 18 7 6 11 9 12 13 8 15 7 5 19 11 13 9 12 17 9 5 9 18 22 19 13 18 21 16 4 7 10 14 17 20 21 20
3 4 3 3 11 22 15 15 26 25 15 15 18 26 19 11 14 19 19 8 3 4 3 11 10 10 22 21 5 6 14 23 26 32 15 22 20 16 11 14 15 15 17 20 20
3 3 2 3 5 2 14 24 20 14 20 13 19 19 23 23 19 13 17 9 8 7 10 6 5 9 18 16 15 9 15 19 26 29 28 26 19 5 8 11 14 13 16 19 20
4 2 2 4 3 3 3 2 11 11 13 18 18 18 18 23 21 17 9 3 6 10 13 8 6 5 13 5 7 6 31 20 21 22 19 24 28 5 6 7 12 16 20 25 27
Wind_Direction
353 357 357 358 1 7 7 5 360 357 350 344 340 335 327 322 300 229 286 21 359 135 280 157 219 269 233 92 351 308 244 219 205 206 201 150 188 155 51 204 102 36 29 22 352
339 344 344 347 348 346 351 350 352 345 341 338 332 330 325 326 285 267 56 18 78 173 225 224 193 200 150 116 201 272 269 323 354 160 201 161 235 168 217 185 170 145 85 25 23
320 327 329 332 336 336 335 339 339 339 335 332 328 328 325 313 279 80 53 113 144 254 268 243 149 251 232 257 177 137 280 89 173 237 296 204 213 227 242 234 36 348 59 34 36
300 310 316 319 322 327 328 329 331 331 330 327 326 325 321 264 310 89 63 131 171 255 185 172 218 244 271 244 164 253 230 260 138 169 209 220 232 225 248 60 68 65 74 52 45
278 286 295 302 310 315 319 321 322 324 323 324 324 323 308 257 288 115 124 136 181 199 220 222 247 260 258 266 217 240 212 228 221 211 236 227 244 263 197 146 125 102 94 69 40
262 274 280 287 296 302 308 313 315 319 321 322 320 315 270 264 97 124 124 144 200 209 196 223 291 279 298 259 255 21 277 260 236 236 231 229 240 193 178 163 156 164 119 70 30
250 258 268 276 283 293 299 305 310 313 314 315 313 300 263 270 48 135 153 97 182 245 207 201 210 229 134 234 228 295 283 262 240 232 235 214 231 228 135 171 170 171 160 103 38
242 249 257 267 274 282 292 300 305 309 310 312 303 280 262 68 137 168 168 117 123 111 352 136 205 160 272 128 206 249 250 262 107 170 172 206 264 150 173 184 192 187 181 176 81
229 235 246 253 262 276 285 291 292 301 301 294 265 262 260 134 193 187 195 185 133 111 71 123 204 237 181 225 245 212 265 226 248 197 155 203 248 157 190 204 211 207 201 193 158
230 230 228 244 251 265 280 277 297 259 222 231 251 259 189 220 131 153 151 165 148 145 136 187 201 220 224 214 236 257 227 253 257 173 220 212 248 166 189 208 216 208 205 201 188
233 225 232 232 238 254 289 233 227 186 227 237 280 277 85 75 171 169 155 159 143 198 207 201 219 220 225 229 254 284 282 266 261 133 268 247 251 226 188 210 215 211 207 199 179
217 228 222 234 223 227 266 272 13 359 291 232 246 259 232 212 193 179 178 187 195 211 204 188 230 243 248 268 241 248 257 259 263 244 248 267 262 257 186 215 218 214 205 191 168
228 224 220 217 185 188 248 238 23 301 261 258 218 234 212 183 221 188 186 203 211 219 203 228 229 251 226 228 228 237 249 259 263 263 241 273 264 252 218 214 217 229 208 183 179
242 233 226 176 151 162 218 223 211 25 276 227 197 183 169 199 238 222 206 193 203 228 214 253 256 201 200 230 217 249 236 250 265 263 262 175 287 272 202 208 216 206 195 184 164
233 232 221 166 139 191 128 143 162 162 270 116 150 91 158 194 47 98 299 213 233 195 184 220 188 202 221 225 204 255 29 233 250 254 275 256 265 261 23 211 215 203 192 181 166
231 226 209 202 181 147 139 135 106 155 233 171 134 170 158 192 121 107 170 254 360 256 236 267 40 224 228 94 200 128 113 120 243 266 256 245 236 268 215 225 210 190 188 175 169
232 224 193 167 215 164 156 128 190 205 188 168 185 183 194 179 188 184 174 194 206 197 231 238 230 199 181 148 136 199 170 245 239 210 257 283 228 254 163 196 214 185 181 173 169
226 214 214 203 161 151 196 165 221 225 224 81 86 180 186 165 209 184 188 224 220 233 294 226 227 201 194 219 200 198 205 203 244 231 271 125 238 245 25 28 182 173 173 171 171
208 220 223 189 167 179 194 218 206 219 201 180 149 217 205 208 239 194 218 224 229 207 219 223 246 273 175 224 219 179 225 242 341 106 276 243 244 224 169 177 178 169 172 176 174
206 220 217 156 169 194 222 223 219 227 142 186 219 202 222 189 188 201 196 207 223 225 218 295 284 153 140 191 249 227 168 163 171 229 236 251 255 250 205 192 183 178 180 177 175
223 225 180 161 173 214 223 230 233 238 237 190 229 242 229 177 205 201 237 195 195 213 193 199 207 170 186 205 193 166 216 231 195 237 239 271 256 8 266 190 189 184 181 176 174
220 214 145 152 205 215 234 192 228 227 215 235 249 243 246 234 205 225 234 225 181 151 169 214 177 235 233 233 264 228 207 211 207 197 232 277 263 80 73 188 186 181 180 176 175
258 207 177 172 212 222 229 224 228 208 211 207 227 228 232 235 214 207 236 235 225 167 197 165 206 239 239 289 246 235 223 232 224 216 216 211 256 87 158 189 186 183 177 176 175
263 240 206 218 228 223 226 234 226 222 225 197 214 207 186 223 214 235 238 241 226 246 207 159 186 216 239 259 128 204 217 216 222 221 233 222 244 188 198 188 185 187 181 179 179
174 247 7 234 217 218 224 250 233 232 214 218 233 232 222 231 238 234 248 231 174 214 191 179 233 210 250 270 266 217 222 216 214 228 215 247 236 235 199 198 191 183 176 179 182
225 206 188 309 318 291 230 243 236 248 217 210 227 218 227 223 209 233 232 203 203 176 183 193 248 231 252 243 230 236 233 231 225 231 230 242 251 244 162 148 168 180 176 186 188
164 115 263 170 183 220 204 283 262 305 241 219 216 230 217 223 236 254 252 170 181 170 188 173 203 200 251 204 196 238 227 220 228 231 234 235 242 117 121 183 177 182 188 192 196